This demonstration page uses our WeatherBlox Daily Observations layout. Learn more.

Left ArrowRight Arrow

41.86663, -103.66717

Hourly Observations for November 10, 2020

Temp ( °F °C ) Dew Point ( °F °C ) Humidity (%) Winds ( mph kmh ) Pressure ( in mb ) Visibility ( mi km ) Precip ( " mm )
12:27 am 00:27 Cloudy with Light Snow 27 -2.8 25 -3.9 92 92 Calm 30.03 1017 3 4 0.00 0.00
12:53 am 00:53 Cloudy with Light Snow 27 -2.8 26 -3.3 96 96 Calm 29.95 1014 2 3 0.01 0.25
1:11 am 01:11 Cloudy with Light Snow 27 -2.8 25 -3.9 92 92 Calm 30.02 1016 2 3 0.01 0.25
1:19 am 01:19 Cloudy with Light Snow 27 -2.8 26 -3.3 96 96 NW 3 6 30.02 1016 3 4 0.01 0.25
1:40 am 01:40 Cloudy with Light Snow 27 -3 27 -3 100 100 NW 3 6 30.01 1016 1 2 0.00 0.00
1:53 am 01:53 Cloudy with Light Snow 27 -2.8 26 -3.3 96 96 Calm 29.93 1014 1 2 0.02 0.51
2:17 am 02:17 Cloudy with Light Snow 27 -2.8 26 -3.3 96 96 Calm 30.01 1016 3 5 0.00 0.00
2:26 am 02:26 Cloudy with Light Snow 27 -2.8 25 -3.9 92 92 Calm 30.01 1016 5 8 0.00 0.00
2:53 am 02:53 Cloudy 26 -3.3 25 -3.9 96 96 SE 6 9 29.93 1014 10 16 0.00 0.00
3:48 am 03:48 Cloudy 27 -3 27 -3 100 100 S 5 7 30.03 1017 10 16 0.00 0.00
3:53 am 03:53 Cloudy 26 -3.3 26 -3.3 100 100 S 6 9 29.96 1014 10 16 0.00 0.00
4:10 am 04:10 Cloudy 26 -3.3 25 -3.9 96 96 SSW 5 7 30.03 1017 10 16 0.00 0.00
4:29 am 04:29 Cloudy 26 -3.3 24 -4.4 92 92 Calm 30.03 1017 10 16 0.00 0.00
4:53 am 04:53 Cloudy 24 -4.4 24 -4.4 100 100 SSW 3 6 29.96 1015 10 16 0.00 0.00
5:20 am 05:20 Partly Cloudy with Mist and Fog 20 -6.7 20 -6.7 100 100 Calm 30.08 1019 1 1 0.00 0.00
5:31 am 05:31 Mostly Clear with Freezing Fog 18 -7.8 17 -8.3 96 96 E 3 6 30.09 1019 0 0 0.00 0.00
5:43 am 05:43 Mostly Cloudy with Freezing Fog 16 -8.9 15 -9.4 96 96 ENE 3 6 30.11 1020 0 0 0.00 0.00
5:53 am 05:53 Mostly Cloudy with Freezing Fog 15 -9.4 14 -10 95 95 ENE 5 7 29.98 1015 0 0 0.00 0.00
6:05 am 06:05 Mostly Cloudy with Freezing Fog 16 -8.9 15 -9.4 96 96 ESE 5 7 30.10 1019 1 1 0.00 0.00
6:23 am 06:23 Mostly Cloudy with Freezing Fog 17 -8.3 15 -9.4 92 92 N 3 6 30.10 1019 0 0 0.00 0.00
6:53 am 06:53 Mostly Cloudy with Freezing Fog 16 -8.9 15 -9.4 96 96 N 3 6 29.96 1015 N/A 0.00 0.00
7:53 am 07:53 Cloudy with Freezing Fog 20 -6.7 18 -7.8 92 92 N 3 6 29.95 1014 0 0 0.00 0.00
8:32 am 08:32 Mostly Cloudy with Mist and Fog 23 -5 20 -6.7 88 88 NE 3 6 30.02 1017 1 2 0.00 0.00
8:35 am 08:35 Mostly Cloudy with Mist and Fog 23 -5 20 -6.7 88 88 NE 3 6 30.02 1017 3 5 0.00 0.00
8:42 am 08:42 Partly Cloudy 23 -5 20 -6.7 88 88 E 5 7 30.02 1017 7 11 0.00 0.00
8:53 am 08:53 Sunny 23 -5 20 -6.7 88 88 ENE 3 6 29.93 1014 8 13 0.00 0.00
9:53 am 09:53 Sunny 26 -3.3 24 -4.4 92 92 ESE 3 6 29.91 1013 10 16 0.00 0.00
10:53 am 10:53 Sunny 37 2.8 23 -5 57 57 WNW 18 30 29.85 1011 10 16 0.00 0.00
11:53 am 11:53 Sunny 40 4.4 23 -5 51 51 W 23 37 29.80 1009 10 16 0.00 0.00
12:53 pm 12:53 Sunny 42 5.6 19 -7.2 40 40 WNW 25 41 29.78 1008 10 16 0.00 0.00
1:53 pm 13:53 Sunny 43 6.1 17 -8.3 35 35 W 25 41 29.78 1009 10 16 0.00 0.00
2:53 pm 14:53 Sunny 43 6.1 17 -8.3 35 35 W 26 43 29.80 1009 10 16 0.00 0.00
3:53 pm 15:53 Sunny 41 5 19 -7.2 41 41 W 22 35 29.83 1010 10 16 0.00 0.00
4:53 pm 16:53 Clear 37 2.8 18 -7.8 46 46 W 17 28 29.87 1012 10 16 0.00 0.00
5:53 pm 17:53 Clear 35 1.7 18 -7.8 50 50 W 15 24 29.94 1014 10 16 0.00 0.00
6:53 pm 18:53 Clear 34 1.1 18 -7.8 52 52 W 14 22 29.96 1015 10 16 0.00 0.00
7:53 pm 19:53 Clear 34 1.1 19 -7.2 54 54 W 13 20 29.95 1014 10 16 0.00 0.00
8:53 pm 20:53 Clear 36 2.2 21 -6.1 55 55 W 18 30 29.94 1014 10 16 0.00 0.00
9:53 pm 21:53 Mostly Cloudy 35 1.7 23 -5 61 61 W 8 13 29.95 1014 10 16 0.00 0.00
10:53 pm 22:53 Cloudy 37 2.8 20 -6.7 50 50 W 17 28 29.90 1013 10 16 0.00 0.00
11:53 pm 23:53 Cloudy 37 2.8 20 -6.7 50 50 W 18 30 29.90 1013 10 16 0.00 0.00

Powered by AerisWeather